Fort Leonard Wood, MO

8:39 PM CDT on July 21, 2017 (GMT -0500)
Waynesville Regional At Forney Field

Weather History for KTBN - February, 2015

Change the Weather History Date:

Monday, February 16, 2015

  Actual Average Record
Temperature  
Mean Temperature 14 °F -  
Max Temperature 19 °F 46 °F 73 °F (2011)
Min Temperature 10 °F 32 °F 6 °F (2007)
Degree Days  
Heating Degree Days 50    
Moisture  
Dew Point 13 °F    
Average Humidity 89    
Maximum Humidity 93    
Minimum Humidity 74    
Precipitation  
Precipitation 0.19 in - - ()
Snow  
Snow 0.00 in - - ()
Snow Depth 4.00 in    
Sea Level Pressure  
Sea Level Pressure 30.09 in    
Wind  
Wind Speed 7 mph (NNE)    
Max Wind Speed 12 mph    
Max Gust Speed 17 mph    
Visibility 5 miles    
Events Snow    
Averages and records for this station are not official NWS values.
T = Trace of Precipitation, MM = Missing Value Source: NWS Daily Summary

Daily Weather History Graph

Daily Weather History Graph

Search for Another Location

Airport or City:

Trip Planner

Search our weather history database for the weather conditions in past years. The results will help you decide how hot, cold, wet, or windy it might be!

Date:

Astronomy

Feb. 16, 2015 Rise Set
Actual Time 6:57 AM CST 5:48 PM CST
Civil Twilight 6:30 AM CST 6:15 PM CST
Nautical Twilight 5:59 AM CST 6:46 PM CST
Astronomical Twilight 5:29 AM CST 7:16 PM CST
Moon 4:50 AM CST (2/16) 3:29 PM CST (2/16)
Length of Visible Light 11h 44m
Length of Day
10h 51m
Waning Crescent, 7% of the Moon is Illuminated
Feb 16
Waning Crescent
Feb 18
New
Feb 25
First Quarter
Mar 5
Full
Mar 13
Last Quarter

Hourly Weather History & Observations

Time (CST) Temp. Windchill Dew Point Humidity Pressure Visibility Wind Dir Wind Speed Gust Speed Precip Events Conditions
12:02 AM 15.8 °F 4.2 °F 12.2 °F 86% 30.17 in 10.0 mi NE 9.2 mph - N/A   Overcast
12:27 AM 15.8 °F 7.2 °F 12.2 °F 86% 30.16 in 2.5 mi NE 5.8 mph - N/A Snow Light Snow
12:42 AM 15.8 °F 7.2 °F 12.2 °F 86% 30.16 in 3.0 mi NE 5.8 mph - N/A Snow Light Snow
12:52 AM 15.8 °F 7.2 °F 14.0 °F 93% 30.16 in 2.5 mi NE 5.8 mph - N/A Snow Light Snow
12:57 AM 15.8 °F 7.2 °F 14.0 °F 93% 30.15 in 3.0 mi ENE 5.8 mph - N/A Snow Light Snow
12:58 AM 15.8 °F 7.2 °F 14.0 °F 93% 30.22 in 3.0 mi ENE 5.8 mph - 0.03 in Snow Light Snow
1:13 AM 15.8 °F 6.1 °F 14.0 °F 93% 30.15 in 3.0 mi ENE 6.9 mph - N/A Snow Light Snow
1:18 AM 15.8 °F 6.1 °F 14.0 °F 93% 30.14 in 2.5 mi ENE 6.9 mph - N/A Snow Light Snow
1:28 AM 15.8 °F 4.2 °F 12.2 °F 86% 30.13 in 1.8 mi NE 9.2 mph - N/A Snow Light Snow
1:38 AM 15.8 °F 7.2 °F 12.2 °F 86% 30.14 in 2.0 mi NE 5.8 mph - N/A Snow Light Snow
1:48 AM 15.8 °F 7.2 °F 12.2 °F 86% 30.14 in 2.0 mi ENE 5.8 mph - N/A Snow Light Snow
1:58 AM 15.8 °F 6.1 °F 12.2 °F 86% 30.19 in 3.0 mi NE 6.9 mph - 0.02 in Snow Light Snow
2:03 AM 15.8 °F 7.2 °F 12.2 °F 86% 30.13 in 4.0 mi NE 5.8 mph - N/A Snow Light Snow
2:08 AM 15.8 °F 7.2 °F 12.2 °F 86% 30.13 in 4.0 mi ENE 5.8 mph - N/A Snow Light Snow
2:28 AM 14.0 °F 2.9 °F 12.2 °F 93% 30.12 in 6.0 mi NE 8.1 mph - N/A Snow Light Snow
2:53 AM 14.0 °F 3.9 °F 12.2 °F 93% 30.12 in 2.5 mi NE 6.9 mph - N/A Snow Light Snow
2:58 AM 14.9 °F 5.0 °F 12.4 °F 90% 30.17 in 1.5 mi ENE 6.9 mph - 0.02 in Snow Light Snow
3:03 AM 14.0 °F 2.9 °F 12.2 °F 93% 30.10 in 1.0 mi ENE 8.1 mph - N/A Snow Light Snow
3:08 AM 14.0 °F 3.9 °F 12.2 °F 93% 30.09 in 0.8 mi NE 6.9 mph - N/A Snow Light Snow
3:13 AM 14.0 °F 3.9 °F 12.2 °F 93% 30.09 in 0.8 mi NE 6.9 mph - N/A Snow Light Snow
3:18 AM 14.0 °F 6.5 °F 12.2 °F 93% 30.10 in 1.0 mi ENE 4.6 mph - N/A Snow Light Snow
3:23 AM 14.0 °F 3.9 °F 12.2 °F 93% 30.10 in 1.0 mi ENE 6.9 mph - N/A Snow Light Snow
3:28 AM 14.0 °F 5.1 °F 12.2 °F 93% 30.10 in 1.5 mi NE 5.8 mph - N/A Snow Light Snow
3:38 AM 14.0 °F 2.9 °F 12.2 °F 93% 30.09 in 1.2 mi NE 8.1 mph - N/A Snow Light Snow
3:43 AM 14.0 °F 3.9 °F 12.2 °F 93% 30.09 in 1.0 mi NE 6.9 mph - N/A Snow Light Snow
3:53 AM 14.0 °F 5.1 °F 12.2 °F 93% 30.08 in 1.0 mi ENE 5.8 mph - N/A Snow Light Snow
3:58 AM 14.0 °F 3.9 °F 12.4 °F 93% 30.16 in 1.0 mi ENE 6.9 mph - 0.05 in Snow Light Snow
4:03 AM 14.0 °F 2.0 °F 12.2 °F 93% 30.08 in 1.2 mi ENE 9.2 mph - N/A Snow Light Snow
4:08 AM 14.0 °F 3.9 °F 12.2 °F 93% 30.08 in 1.5 mi ENE 6.9 mph - N/A Snow Light Snow
4:23 AM 14.0 °F 3.9 °F 12.2 °F 93% 30.08 in 2.0 mi NNE 6.9 mph - N/A Snow Light Snow
4:28 AM 14.0 °F 2.9 °F 12.2 °F 93% 30.08 in 1.8 mi NE 8.1 mph - N/A Snow Light Snow
4:58 AM 14.0 °F 3.9 °F 12.0 °F 92% 30.14 in 1.5 mi NE 6.9 mph - 0.02 in Snow Light Snow
5:13 AM 14.0 °F 6.5 °F 12.2 °F 93% 30.08 in 2.0 mi NE 4.6 mph - N/A Snow Light Snow
5:18 AM 14.0 °F 6.5 °F 12.2 °F 93% 30.08 in 2.5 mi NNE 4.6 mph - N/A Snow Light Snow
5:23 AM 14.0 °F 6.5 °F 12.2 °F 93% 30.08 in 3.0 mi NNE 4.6 mph - N/A Snow Light Snow
5:33 AM 14.0 °F 5.1 °F 12.2 °F 93% 30.07 in 2.5 mi NE 5.8 mph - N/A Snow Light Snow
5:38 AM 14.0 °F 3.9 °F 12.2 °F 93% 30.07 in 2.5 mi NE 6.9 mph - N/A Snow Light Snow
5:48 AM 14.0 °F 2.9 °F 12.2 °F 93% 30.07 in 2.5 mi NE 8.1 mph - N/A Snow Light Snow
5:58 AM 13.8 °F 4.9 °F 11.8 °F 92% 30.13 in 2.0 mi NE 5.8 mph - 0.02 in Snow Light Snow
6:13 AM 14.0 °F 8.2 °F 12.2 °F 93% 30.06 in 3.0 mi NNE 3.5 mph - N/A Snow Light Snow
6:23 AM 14.0 °F - 12.2 °F 93% 30.06 in 4.0 mi NE 2.3 mph - N/A Snow Light Snow
6:43 AM 14.0 °F 2.9 °F 12.2 °F 93% 30.05 in 8.0 mi NE 8.1 mph - N/A Snow Light Snow
6:48 AM 14.0 °F 6.5 °F 12.2 °F 93% 30.05 in 7.0 mi NE 4.6 mph - N/A Snow Light Snow
6:58 AM 14.0 °F 3.9 °F 11.8 °F 91% 30.12 in 7.0 mi NE 6.9 mph - 0.01 in Snow Light Snow
7:03 AM 14.0 °F 3.9 °F 12.2 °F 93% 30.06 in 5.0 mi NNE 6.9 mph - N/A Snow Light Snow
7:18 AM 14.0 °F 3.9 °F 12.2 °F 93% 30.05 in 7.0 mi NNE 6.9 mph - N/A Snow Light Snow
7:53 AM 14.0 °F 2.9 °F 12.2 °F 93% 30.05 in 4.0 mi NNE 8.1 mph - N/A Snow Light Snow
7:58 AM 14.2 °F 4.1 °F 12.2 °F 92% 30.12 in 4.0 mi North 6.9 mph - 0.00 in Snow Light Snow
8:03 AM 14.0 °F 5.1 °F 12.2 °F 93% 30.06 in 5.0 mi North 5.8 mph - N/A Snow Light Snow
8:23 AM 14.0 °F 2.9 °F 12.2 °F 93% 30.07 in 6.0 mi North 8.1 mph - N/A Snow Light Snow
8:53 AM 14.0 °F 5.1 °F 12.2 °F 93% 30.06 in 9.0 mi North 5.8 mph - N/A Snow Light Snow
8:58 AM 14.7 °F 3.8 °F 12.6 °F 91% 30.15 in 9.0 mi NNW 8.1 mph - 0.00 in Snow Light Snow
9:18 AM 14.0 °F 2.9 °F 12.2 °F 93% 30.06 in 10.0 mi North 8.1 mph - N/A Snow Light Snow
9:28 AM 15.8 °F 6.1 °F 12.2 °F 86% 30.07 in 7.0 mi NNW 6.9 mph - N/A Snow Light Snow
9:58 AM 15.8 °F 5.1 °F 12.2 °F 86% 30.13 in 10.0 mi North 8.1 mph - 0.01 in Snow Light Snow
10:13 AM 15.8 °F 3.4 °F 12.2 °F 86% 30.04 in 7.0 mi North 10.4 mph - N/A Snow Light Snow
10:18 AM 15.8 °F 6.1 °F 12.2 °F 86% 30.05 in 8.0 mi North 6.9 mph - N/A Snow Light Snow
10:23 AM 15.8 °F 5.1 °F 12.2 °F 86% 30.04 in 7.0 mi North 8.1 mph - N/A Snow Light Snow
10:43 AM 15.8 °F 6.1 °F 12.2 °F 86% 30.06 in 3.0 mi NNE 6.9 mph - N/A Snow Light Snow
10:58 AM 16.2 °F 7.6 °F 12.7 °F 86% 30.14 in 3.0 mi North 5.8 mph - 0.00 in Snow Light Snow
11:23 AM 15.8 °F 6.1 °F 12.2 °F 86% 30.07 in 2.5 mi NNW 6.9 mph - N/A Snow Light Snow
11:33 AM 15.8 °F 7.2 °F 14.0 °F 93% 30.07 in 2.5 mi NNW 5.8 mph - N/A Snow Light Snow
11:38 AM 15.8 °F 6.1 °F 14.0 °F 93% 30.07 in 3.0 mi Variable 6.9 mph - N/A Snow Light Snow
11:58 AM 16.9 °F 7.4 °F 13.3 °F 86% 30.13 in 4.0 mi NNW 6.9 mph - 0.01 in Snow Light Snow
12:03 PM 17.6 °F 7.3 °F 14.0 °F 86% 30.06 in 4.0 mi NNW 8.1 mph - N/A Snow Light Snow
12:08 PM 17.6 °F 8.2 °F 14.0 °F 86% 30.06 in 4.0 mi Variable 6.9 mph - N/A Snow Light Snow
12:38 PM 17.6 °F 6.4 °F 14.0 °F 86% 30.05 in 4.0 mi NW 9.2 mph - N/A Snow Light Snow
12:53 PM 17.6 °F 6.4 °F 14.0 °F 86% 30.05 in 5.0 mi NNW 9.2 mph - N/A Snow Light Snow
12:58 PM 17.4 °F 5.4 °F 13.6 °F 85% 30.11 in 5.0 mi NNW 10.4 mph - 0.00 in Snow Light Snow
1:03 PM 17.6 °F 6.4 °F 14.0 °F 86% 30.04 in 4.0 mi NNW 9.2 mph - N/A Snow Light Snow
1:08 PM 17.6 °F 5.0 °F 14.0 °F 86% 30.04 in 4.0 mi North 11.5 mph - N/A Snow Light Snow
1:28 PM 17.6 °F 7.3 °F 14.0 °F 86% 30.03 in 5.0 mi NNW 8.1 mph - N/A Snow Light Snow
1:33 PM 17.6 °F 6.4 °F 14.0 °F 86% 30.02 in 5.0 mi NNW 9.2 mph - N/A Snow Light Snow
1:58 PM 18.7 °F 7.8 °F 13.6 °F 81% 30.09 in 10.0 mi NNW 9.2 mph - 0.00 in Snow Light Snow
2:04 PM 19.4 °F 7.9 °F 12.2 °F 74% 30.01 in 10.0 mi North 10.4 mph - N/A   Overcast
2:58 PM 19.9 °F 8.6 °F 13.8 °F 77% 30.09 in 10.0 mi NNW 10.4 mph - 0.00 in   Overcast
2:59 PM 19.4 °F 7.9 °F 14.0 °F 80% 30.02 in 10.0 mi NNW 10.4 mph 17.3 mph N/A   Overcast
3:05 PM 19.4 °F 7.9 °F 14.0 °F 80% 30.02 in 10.0 mi North 10.4 mph - N/A   Overcast
3:15 PM 19.4 °F 8.6 °F 14.0 °F 80% 30.03 in 10.0 mi NNW 9.2 mph - N/A   Overcast
3:24 PM 19.4 °F 9.5 °F 14.0 °F 80% 30.02 in 10.0 mi NNW 8.1 mph - N/A   Overcast
3:41 PM 19.4 °F 7.9 °F 14.0 °F 80% 30.03 in 10.0 mi North 10.4 mph - N/A Snow Light Snow
3:47 PM 19.4 °F 9.5 °F 14.0 °F 80% 30.03 in 10.0 mi North 8.1 mph - N/A   Overcast
3:58 PM 19.2 °F 10.2 °F 14.0 °F 80% 30.09 in 10.0 mi North 6.9 mph - 0.00 in   Overcast
4:58 PM 19.0 °F 9.0 °F 14.0 °F 81% 30.09 in 10.0 mi NW 8.1 mph - N/A   Overcast
5:58 PM 18.5 °F 10.4 °F 13.5 °F 81% 30.13 in 10.0 mi NW 5.8 mph - N/A   Overcast
6:48 PM 17.6 °F 9.3 °F 12.2 °F 79% 30.07 in 10.0 mi NNW 5.8 mph - N/A   Scattered Clouds
6:58 PM 15.8 °F 8.6 °F 11.7 °F 84% 30.14 in 10.0 mi North 4.6 mph - N/A   Partly Cloudy
7:58 PM 14.7 °F - 12.0 °F 89% 30.15 in 10.0 mi NW 2.3 mph - N/A   Clear
8:58 PM 10.8 °F - 8.8 °F 92% 30.17 in 10.0 mi West 1.2 mph - N/A   Scattered Clouds
9:58 PM 14.0 °F 8.2 °F 11.8 °F 91% 30.16 in 10.0 mi WNW 3.5 mph - N/A   Overcast
10:58 PM 14.2 °F - 11.7 °F 90% 30.16 in 10.0 mi WSW 2.3 mph - N/A   Overcast
11:58 PM 14.0 °F - 11.3 °F 89% 30.12 in 10.0 mi Calm Calm - N/A   Mostly Cloudy